Terminal Aerodrome Forecast
Issued by NWS Boston, MA

Home | Current Version | Previous Version | Text Only | Print | Product List | Glossary On
Versions: 1 2 3 4 5 6 7 8 9 10 11 12 13 14 15 16 17 18 19 20 21 22 23 24 25 26 27 28 29 30 31 32 33 34 35 36 37 38 39 40 41 42
000
FTUS41 KBOX 211402 AAA
TAFBDL
TAF AMD
KBDL 211402Z 2114/2218 03005KT P6SM SCT050 BKN100
     FM220400 36004KT 5SM BR BKN040
     FM220600 36004KT 5SM BR BKN010
     FM221200 35006KT P6SM OVC015
     FM221500 36007KT P6SM -SHRA OVC020=

USA.gov is the U.S. government's official web portal to all federal, state and local government web resources and services.